Los Alamos, NM

12:53 PM MST on November 14, 2019 (GMT -0700)
Los Alamos

Weather History for KLAM - October, 2019

Change the Weather History Date:

Sunday, October 20, 2019

  Actual Average Record
Temperature  
Mean Temperature 44 °F -  
Max Temperature 51 °F 59 °F 73 °F (2007)
Min Temperature 37 °F 35 °F 20 °F (1976)
Degree Days  
Heating Degree Days 21    
Moisture  
Dew Point 4 °F    
Average Humidity 18    
Maximum Humidity 26    
Minimum Humidity 9    
Precipitation  
Precipitation 0.00 in - - ()
Sea Level Pressure  
Sea Level Pressure 29.94 in    
Wind  
Wind Speed 13 mph ()    
Max Wind Speed 37 mph    
Max Gust Speed 48 mph    
Visibility 10.0 miles    
Events      
Averages and records for this station are not official NWS values.
T = Trace of Precipitation, MM = Missing Value Source: Averaged Metar Reports

Daily Weather History Graph

Daily Weather History Graph

Search for Another Location

Airport or City:

Astronomy

Oct. 20, 2019 Rise Set
Actual Time 7:16 AM MDT 6:23 PM MDT
Civil Twilight 6:50 AM MDT 6:49 PM MDT
Nautical Twilight 6:20 AM MDT 7:18 PM MDT
Astronomical Twilight 5:50 AM MDT 7:48 PM MDT
Moon 11:42 PM MDT (10/20) 1:38 PM MDT (10/20)
Length of Visible Light 11h 58m
Length of Day
11h 07m
Waning Gibbous, 58% of the Moon is Illuminated
Oct 20
Waning Gibbous
Oct 21
Last Quarter
Oct 27
New
Nov 4
First Quarter
Nov 12
Full

Hourly Weather History & Observations

Time (MDT) Temp. Windchill Dew Point Humidity Pressure Visibility Wind Dir Wind Speed Gust Speed Precip Events Conditions
12:10 AM 46.6 °F - 9.9 °F 23% 29.93 in 10.0 mi SSE 4.6 mph - N/A   Clear
12:35 AM 48.0 °F - 5.9 °F 18% 29.91 in 10.0 mi SSW 5.8 mph - N/A   Clear
12:55 AM 49.5 °F - 2.8 °F 15% 29.91 in 10.0 mi SSW 5.8 mph - N/A   Clear
1:15 AM 50.0 °F - 4.6 °F 16% 29.91 in 10.0 mi South 6.9 mph - N/A   Clear
1:35 AM 47.3 °F - 7.3 °F 20% 29.89 in 10.0 mi South 8.1 mph - N/A   Clear
1:55 AM 46.4 °F 42.4 °F 8.2 °F 21% 29.89 in 10.0 mi SSE 8.1 mph - N/A   Clear
2:15 AM 47.5 °F - 9.3 °F 21% 29.88 in 10.0 mi SW 4.6 mph 20.7 mph N/A   Clear
2:35 AM 51.3 °F - 12.9 °F 22% 29.88 in 10.0 mi WSW 15.0 mph 23.0 mph N/A   Clear
2:55 AM 51.4 °F - 14.2 °F 23% 29.87 in 10.0 mi SW 17.3 mph 31.1 mph N/A   Clear
3:15 AM 51.1 °F - 14.4 °F 23% 29.88 in 10.0 mi WSW 11.5 mph 23.0 mph N/A   Clear
3:35 AM 50.9 °F - 14.0 °F 23% 29.87 in 10.0 mi SW 9.2 mph 16.1 mph N/A   Clear
3:55 AM 50.0 °F - 13.8 °F 24% 29.87 in 10.0 mi WSW 4.6 mph 10.4 mph N/A   Clear
4:15 AM 49.8 °F - 13.1 °F 23% 29.88 in 10.0 mi WSW 9.2 mph 16.1 mph N/A   Clear
4:35 AM 49.3 °F - 12.2 °F 23% 29.88 in 10.0 mi South 4.6 mph - N/A   Clear
4:55 AM 48.6 °F - 12.7 °F 24% 29.88 in 10.0 mi SSE 5.8 mph - N/A   Clear
5:15 AM 46.6 °F - 12.7 °F 26% 29.88 in 10.0 mi South 5.8 mph - N/A   Clear
5:35 AM 45.9 °F 42.9 °F 12.2 °F 26% 29.88 in 10.0 mi SSW 5.8 mph - N/A   Clear
5:55 AM 48.2 °F - 12.6 °F 24% 29.88 in 10.0 mi WSW 8.1 mph 19.6 mph N/A   Mostly Cloudy
6:15 AM 50.4 °F - 14.2 °F 24% 29.88 in 10.0 mi West 16.1 mph 25.3 mph N/A   Overcast
6:35 AM 50.5 °F - 13.8 °F 23% 29.87 in 10.0 mi WSW 18.4 mph 31.1 mph N/A   Overcast
6:55 AM 50.0 °F - 12.4 °F 22% 29.85 in 10.0 mi WSW 16.1 mph 23.0 mph N/A   Scattered Clouds
7:15 AM 50.0 °F - 10.4 °F 20% 29.85 in 10.0 mi SW 12.7 mph 23.0 mph N/A   Clear
7:35 AM 49.6 °F - 10.4 °F 21% 29.86 in 10.0 mi SW 8.1 mph - N/A   Clear
7:55 AM 49.1 °F - 10.4 °F 21% 29.86 in 10.0 mi WSW 12.7 mph 23.0 mph N/A   Clear
8:15 AM 48.6 °F - 9.5 °F 21% 29.87 in 10.0 mi WSW 15.0 mph 25.3 mph N/A   Clear
8:35 AM 48.9 °F - 9.5 °F 20% 29.88 in 10.0 mi West 19.6 mph 26.5 mph N/A   Clear
8:55 AM 49.6 °F - 9.5 °F 20% 29.89 in 10.0 mi West 13.8 mph 23.0 mph N/A   Clear
9:15 AM 49.5 °F - 9.7 °F 20% 29.90 in 10.0 mi West 16.1 mph 23.0 mph N/A   Clear
9:35 AM 49.6 °F - 8.8 °F 19% 29.90 in 10.0 mi West 25.3 mph 31.1 mph N/A   Clear
9:55 AM 50.7 °F - 11.1 °F 20% 29.90 in 10.0 mi West 20.7 mph 35.7 mph N/A   Clear
10:15 AM 49.5 °F - 12.6 °F 23% 29.90 in 10.0 mi West 20.7 mph 40.3 mph N/A   Clear
10:35 AM 50.9 °F - 14.5 °F 24% 29.91 in 10.0 mi WNW 12.7 mph 25.3 mph N/A   Clear
10:55 AM 48.7 °F - 12.4 °F 23% 29.92 in 10.0 mi West 27.6 mph 36.8 mph N/A   Clear
11:15 AM 48.6 °F - 11.3 °F 22% 29.91 in 10.0 mi West 23.0 mph 41.4 mph N/A   Clear
11:35 AM 48.2 °F - 11.5 °F 23% 29.91 in 10.0 mi West 26.5 mph 42.6 mph N/A   Clear
11:55 AM 49.5 °F - 10.4 °F 21% 29.91 in 10.0 mi West 26.5 mph 36.8 mph N/A   Clear
12:15 PM 50.5 °F - 8.1 °F 18% 29.92 in 10.0 mi West 21.9 mph 28.8 mph N/A   Clear
12:35 PM 48.6 °F - 5.0 °F 17% 29.92 in 10.0 mi WSW 27.6 mph 35.7 mph N/A   Clear
12:55 PM 47.8 °F - 2.7 °F 16% 29.93 in 10.0 mi West 27.6 mph 43.7 mph N/A   Clear
1:15 PM 49.1 °F - 1.9 °F 14% 29.93 in 10.0 mi West 32.2 mph 46.0 mph N/A   Clear
1:35 PM 48.6 °F - 1.2 °F 14% 29.93 in 10.0 mi West 33.4 mph 46.0 mph N/A   Clear
1:55 PM 48.7 °F - 2.1 °F 15% 29.93 in 10.0 mi West 25.3 mph 36.8 mph N/A   Clear
2:15 PM 47.7 °F - 0.3 °F 14% 29.94 in 10.0 mi West 33.4 mph 44.9 mph N/A   Clear
2:35 PM 48.2 °F - -2.6 °F 12% 29.93 in 10.0 mi West 36.8 mph 48.3 mph N/A   Clear
2:55 PM 48.6 °F - -5.4 °F 11% 29.94 in 10.0 mi West 23.0 mph 36.8 mph N/A   Clear
3:15 PM 47.1 °F - -6.0 °F 11% 29.94 in 10.0 mi WNW 21.9 mph 28.8 mph N/A   Clear
3:35 PM 46.9 °F - -9.8 °F 9% 29.94 in 10.0 mi NW 11.5 mph 34.5 mph N/A   Clear
3:55 PM 46.9 °F - -7.4 °F 10% 29.95 in 10.0 mi NW 16.1 mph 21.9 mph N/A   Clear
4:15 PM 46.4 °F 39.8 °F -9.4 °F 9% 29.97 in 10.0 mi NW 16.1 mph 26.5 mph N/A   Clear
4:35 PM 45.9 °F 39.4 °F -9.9 °F 9% 29.97 in 10.0 mi NW 15.0 mph 25.3 mph N/A   Clear
4:55 PM 45.7 °F 38.3 °F -7.8 °F 10% 29.98 in 10.0 mi West 18.4 mph 33.4 mph N/A   Clear
5:15 PM 45.3 °F 38.4 °F -5.1 °F 12% 29.98 in 10.0 mi WNW 16.1 mph 24.2 mph N/A   Clear
5:35 PM 44.8 °F 38.7 °F -5.1 °F 12% 29.99 in 10.0 mi WNW 12.7 mph 26.5 mph N/A   Clear
5:55 PM 43.9 °F 35.4 °F -5.3 °F 13% 29.99 in 10.0 mi West 20.7 mph 29.9 mph N/A   Clear
6:15 PM 42.6 °F 35.2 °F -6.0 °F 13% 29.99 in 10.0 mi NW 15.0 mph 26.5 mph N/A   Clear
6:35 PM 41.9 °F 34.3 °F -6.5 °F 13% 30.00 in 10.0 mi WNW 15.0 mph 28.8 mph N/A   Clear
6:55 PM 41.4 °F 34.3 °F -4.9 °F 14% 30.00 in 10.0 mi WNW 12.7 mph 24.2 mph N/A   Clear
7:15 PM 40.8 °F 32.3 °F -5.1 °F 14% 29.99 in 10.0 mi NW 17.3 mph 27.6 mph N/A   Clear
7:35 PM 40.8 °F 32.3 °F -5.6 °F 14% 30.00 in 10.0 mi WNW 17.3 mph 29.9 mph N/A   Clear
7:55 PM 40.1 °F 31.6 °F -5.3 °F 15% 30.01 in 10.0 mi WNW 16.1 mph 26.5 mph N/A   Clear
8:15 PM 40.1 °F 31.6 °F -4.0 °F 15% 30.02 in 10.0 mi WNW 16.1 mph 25.3 mph N/A   Clear
8:35 PM 40.1 °F 32.0 °F -4.0 °F 15% 30.03 in 10.0 mi WNW 15.0 mph 24.2 mph N/A   Clear
8:55 PM 40.1 °F 33.6 °F -3.5 °F 16% 30.04 in 10.0 mi WNW 10.4 mph 20.7 mph N/A   Clear
9:15 PM 39.4 °F 33.2 °F -2.4 °F 17% 30.05 in 10.0 mi West 9.2 mph - N/A   Clear
9:35 PM 38.7 °F 30.5 °F -2.2 °F 18% 30.05 in 10.0 mi West 13.8 mph 19.6 mph N/A   Clear
9:55 PM 38.5 °F 28.9 °F -1.5 °F 19% 30.05 in 10.0 mi West 18.4 mph 24.2 mph N/A   Clear
10:15 PM 38.7 °F 30.1 °F -1.3 °F 19% 30.05 in 10.0 mi West 15.0 mph 21.9 mph N/A   Clear
10:35 PM 38.3 °F 29.7 °F -0.8 °F 19% 30.05 in 10.0 mi WNW 15.0 mph - N/A   Clear
10:55 PM 37.9 °F 28.2 °F 1.0 °F 21% 30.04 in 10.0 mi WNW 18.4 mph 25.3 mph N/A   Clear
11:15 PM 37.9 °F 27.9 °F 1.8 °F 22% 30.03 in 10.0 mi WNW 19.6 mph 25.3 mph N/A   Clear
11:35 PM 38.3 °F 30.5 °F 1.6 °F 21% 30.04 in 10.0 mi WNW 12.7 mph 26.5 mph N/A   Clear
11:55 PM 37.9 °F 34.4 °F 0.3 °F 21% 30.05 in 10.0 mi NNE 4.6 mph 17.3 mph N/A   Clear